Theta_e
340 341 345 344 346 347 346 343 344 345 346 347 348 349 348 347 349 347 346 355 356 356 356 355 356 356 356 356 355 356 358 359 358 359 359 359 361 362 360 359 359 359 359
345 344 345 345 347 345 346 339 340 345 346 350 349 349 349 348 347 345 347 350 357 357 354 354 355 355 356 355 356 355 356 359 359 360 362 362 362 362 361 361 359 359 360
346 343 344 344 345 345 345 342 343 343 342 348 342 347 350 348 345 345 347 346 352 356 355 354 354 356 357 355 355 356 358 360 361 361 361 362 361 362 361 362 361 361 360
347 345 344 344 346 346 347 347 341 345 346 344 340 345 347 347 344 346 346 347 348 349 355 356 356 358 356 356 356 358 360 361 361 362 362 362 361 362 362 362 361 361 361
346 345 344 345 347 346 341 345 345 346 343 343 342 347 346 344 343 346 345 346 346 349 349 358 359 360 358 358 357 361 362 362 361 361 362 362 362 363 362 362 361 361 360
348 346 345 347 345 346 339 343 344 346 341 338 346 345 345 345 344 343 344 346 346 347 349 350 354 355 360 360 361 362 363 362 362 362 362 361 362 361 361 361 361 360 360
348 344 345 346 346 346 344 344 345 341 341 340 341 339 339 343 345 342 343 344 344 347 348 350 352 351 354 360 360 362 363 362 362 362 362 361 361 361 360 359 359 360 359
348 347 345 345 344 345 339 334 343 342 343 341 335 335 331 336 342 343 339 341 343 347 346 347 349 350 351 353 354 362 362 363 362 361 361 361 361 361 359 359 358 358 358
348 348 348 344 343 345 344 345 344 339 339 343 337 333 327 325 331 340 343 342 340 343 345 347 349 349 348 349 354 357 360 359 361 360 361 361 361 360 360 359 358 357 357
348 348 348 343 338 346 342 343 348 336 339 334 341 345 341 336 329 330 339 342 345 340 343 345 349 348 347 347 352 354 356 357 359 361 360 361 361 361 360 360 359 358 357
344 347 349 343 332 347 339 335 343 347 343 343 339 338 337 337 338 333 330 336 342 341 345 344 345 346 347 347 348 351 355 356 357 358 361 362 362 361 360 361 362 360 360
342 345 348 348 346 347 346 346 348 347 346 344 343 344 340 337 334 332 329 332 334 337 339 341 344 346 347 347 351 354 356 355 355 355 356 359 362 364 363 362 362 362 361
341 344 347 348 348 347 347 347 347 349 347 345 343 341 340 338 338 332 334 330 330 332 334 341 344 348 350 348 348 355 356 353 351 350 351 353 356 359 362 364 363 364 363
341 343 345 348 349 349 349 348 347 347 347 347 345 344 344 342 339 337 337 329 326 328 333 336 343 346 349 349 350 354 352 349 349 346 346 347 350 353 356 357 358 359 360
343 343 346 348 348 349 349 347 346 346 348 347 347 345 344 345 340 341 344 340 331 328 326 332 335 344 346 344 352 353 353 349 347 345 344 344 345 348 349 350 351 352 353
345 345 346 346 346 348 349 347 346 348 345 346 345 344 343 344 343 342 345 342 339 334 328 335 337 340 339 344 346 351 353 349 346 344 343 342 342 344 345 346 347 347 348
343 343 345 345 343 344 348 347 345 346 345 346 347 345 346 343 343 344 345 345 342 338 331 338 341 334 336 340 347 355 354 351 349 343 342 341 340 341 342 342 342 343 343
344 343 343 342 341 339 339 345 346 348 345 343 346 345 345 348 341 341 343 344 343 343 339 335 340 341 341 344 347 348 352 355 352 347 340 339 338 338 337 337 337 337 336
344 343 341 341 341 339 334 338 345 346 344 344 343 342 343 344 343 343 341 343 343 346 343 340 339 343 343 346 346 349 349 351 355 351 340 338 337 337 336 334 332 330 329
343 342 342 341 339 336 333 335 346 345 345 346 347 346 345 344 344 344 342 342 342 342 342 340 339 340 344 346 348 346 345 347 348 358 353 344 341 339 337 333 332 331 327
346 343 342 341 341 338 336 338 347 346 345 345 347 347 348 348 346 345 346 342 342 340 340 339 338 338 339 340 341 343 344 341 343 348 347 346 343 342 342 336 341 338 332
344 346 344 343 342 343 339 340 347 348 347 345 344 344 346 347 345 342 342 340 344 341 338 338 337 335 336 339 342 340 339 337 337 345 344 342 345 343 346 346 342 336 333
346 344 345 345 344 346 339 338 342 348 348 347 345 345 344 348 344 346 340 337 337 339 340 340 337 338 338 341 342 340 338 337 337 342 342 338 343 341 344 342 330 329 328
345 344 345 346 344 345 336 335 339 345 347 347 346 346 344 344 344 344 344 344 341 342 342 343 342 342 342 342 344 342 340 340 342 344 345 335 340 340 338 333 329 327 324
341 342 345 345 345 346 332 331 335 340 340 343 347 346 347 345 338 334 343 342 343 344 337 333 335 335 333 332 340 344 342 338 335 336 343 338 337 337 337 329 325 324 320
337 340 343 345 341 346 333 328 332 344 341 340 341 344 336 344 332 329 341 341 339 342 344 345 339 336 332 336 331 346 343 339 334 333 340 337 335 334 329 327 322 320 318
Wind_Speed
4 2 2 1 3 3 4 4 4 1 1 5 5 5 6 5 4 3 2 13 15 14 16 20 24 23 21 18 16 14 14 13 13 12 12 11 12 10 10 10 8 8 8
3 2 3 3 4 4 2 1 3 3 0 4 4 6 6 5 4 4 3 4 14 13 13 15 23 25 23 20 17 15 13 13 13 13 11 10 10 10 10 11 10 10 9
5 2 3 4 3 2 1 2 1 0 2 3 3 2 4 3 5 4 4 3 7 13 13 15 20 22 21 21 18 17 14 12 13 13 12 11 10 10 10 10 10 10 9
5 2 2 4 4 4 3 2 2 3 3 1 2 4 3 4 5 6 5 4 3 5 11 14 16 17 19 20 20 18 16 15 14 14 13 13 12 11 11 10 10 10 9
4 3 4 4 1 3 3 1 1 1 3 3 3 3 3 4 4 6 6 6 6 5 4 12 15 16 19 20 19 18 17 16 16 15 15 14 13 13 12 11 11 10 9
4 4 4 4 1 1 1 0 2 1 2 0 2 3 2 1 2 2 6 7 7 6 5 7 7 8 16 17 17 17 17 17 16 16 16 15 14 13 12 11 10 10 10
4 4 4 2 2 1 1 1 2 2 2 1 2 2 3 1 4 5 4 5 8 8 7 7 6 5 8 16 15 16 17 17 16 16 15 15 14 13 11 11 11 11 11
5 5 5 4 0 1 3 2 3 0 2 1 2 1 4 5 3 2 4 6 8 7 8 10 8 8 6 6 9 15 15 16 17 18 17 15 14 14 13 12 12 11 12
4 5 5 2 2 2 3 3 3 4 2 1 3 3 1 3 1 1 3 4 5 5 6 8 9 9 9 8 9 12 16 14 16 17 17 17 16 16 15 14 14 13 12
6 6 5 5 5 3 2 2 3 3 4 4 0 3 3 2 3 2 1 2 4 6 4 3 6 7 7 7 13 15 16 15 15 16 17 17 17 17 16 16 15 13 13
6 6 5 6 5 4 3 5 3 3 3 3 3 3 2 3 2 1 3 1 3 2 2 5 5 5 7 8 7 10 17 17 18 18 18 18 18 19 19 18 16 15 15
4 6 6 6 5 5 5 3 1 4 5 3 3 4 4 3 3 2 1 2 2 3 2 4 5 5 8 9 12 16 17 18 18 19 19 18 18 18 20 19 17 17 17
4 7 6 6 4 6 6 4 2 4 4 3 4 3 2 3 2 1 3 1 1 2 3 4 4 4 5 7 8 14 16 17 18 17 18 18 18 17 17 17 17 17 17
5 5 6 6 7 6 6 5 3 4 4 4 6 4 3 3 3 3 2 3 2 2 3 4 2 4 5 4 5 10 10 17 16 16 16 17 16 16 16 16 16 15 15
4 5 5 5 5 6 6 5 4 5 4 4 5 4 2 2 4 3 2 3 4 3 4 3 3 4 3 3 5 7 7 12 16 16 16 16 16 16 16 15 15 14 14
7 7 7 6 5 6 6 6 5 6 4 4 4 4 1 2 4 5 5 4 4 4 3 4 4 3 3 4 7 5 7 8 12 15 15 15 16 16 16 15 15 15 15
8 9 9 9 6 6 6 6 6 7 7 6 5 5 5 4 3 5 7 7 5 4 4 3 3 3 3 5 6 5 7 6 5 14 15 16 15 16 16 16 16 16 15
7 9 9 8 7 8 7 6 8 7 8 7 6 5 6 3 5 5 4 6 5 5 4 5 2 2 6 4 3 3 4 6 7 10 15 13 14 17 16 15 15 14 13
8 8 7 8 8 9 7 7 7 7 7 7 7 7 7 5 5 3 4 4 4 4 4 4 4 2 3 3 3 3 4 5 3 7 11 16 17 17 16 15 12 12 12
10 10 9 10 9 8 8 7 8 9 7 7 7 7 7 7 7 7 6 7 5 4 3 2 2 2 3 2 2 3 4 2 4 3 6 7 6 10 12 10 10 12 14
9 11 11 9 9 9 9 11 10 9 8 8 8 7 7 8 12 10 6 6 5 4 4 3 3 2 2 2 3 1 4 1 2 3 2 2 3 3 4 8 10 14 16
10 9 12 12 12 10 14 15 13 10 9 9 10 8 7 8 8 11 13 11 8 6 5 4 3 4 4 3 1 1 1 1 2 1 1 3 2 2 3 4 8 12 12
10 9 12 11 13 14 16 17 17 10 11 11 10 8 7 8 10 7 10 12 10 12 8 7 6 6 4 5 4 2 3 3 4 3 1 3 1 3 2 2 5 1 5
9 10 11 14 14 14 16 16 18 12 10 11 11 10 10 10 8 8 7 6 7 8 9 6 7 7 6 5 6 5 4 3 2 2 3 3 2 4 1 2 8 6 12
5 7 9 12 14 15 16 18 14 8 9 11 9 9 11 11 12 13 7 7 7 7 9 15 12 12 11 10 7 3 3 3 3 3 4 4 3 2 1 2 3 8 10
6 5 8 9 15 15 15 18 16 9 10 8 7 9 14 14 14 14 10 9 8 10 6 5 4 6 8 7 9 8 4 5 4 2 4 4 3 3 1 2 2 3 4
Wind_Direction
240 232 256 261 265 207 203 205 231 122 100 282 266 258 228 213 196 221 209 222 206 201 202 201 195 189 187 186 188 188 191 187 189 189 193 197 193 195 203 214 216 231 239
228 245 285 278 262 207 203 198 224 135 58 294 276 239 222 191 165 201 201 197 171 182 200 208 197 193 189 192 197 201 201 198 199 202 205 207 207 207 220 215 227 235 240
238 213 272 297 265 141 354 229 208 94 175 276 272 208 201 202 172 168 168 153 165 180 192 196 182 186 191 197 201 211 215 211 206 208 211 213 214 216 221 232 227 236 242
242 265 283 278 260 137 227 222 221 279 172 172 334 8 89 160 159 164 154 155 153 180 192 193 190 187 198 204 208 212 214 212 212 213 212 215 219 220 219 220 232 240 245
219 222 253 269 12 134 212 184 270 217 31 345 350 7 46 129 167 160 158 168 172 188 166 192 191 187 198 205 210 214 215 213 214 218 218 219 221 222 220 222 231 235 243
213 220 261 290 28 173 159 146 255 168 100 311 327 12 353 71 115 172 181 182 186 187 177 180 184 194 198 206 206 211 215 217 216 218 222 224 224 222 221 225 225 235 242
204 221 257 274 63 249 256 183 18 17 316 119 359 6 353 43 168 195 180 179 184 187 188 192 180 190 205 209 210 211 216 217 219 221 223 223 221 224 220 220 224 231 241
193 209 240 255 66 10 181 172 190 135 323 86 101 52 24 337 11 148 167 196 188 179 191 194 195 190 196 210 215 216 215 224 225 225 224 222 222 224 225 224 228 236 243
195 224 239 232 194 239 207 178 164 146 128 347 236 132 103 235 4 244 188 196 187 190 192 190 193 197 198 202 209 223 223 220 227 231 226 221 219 221 224 225 230 235 239
194 217 240 207 191 220 231 164 153 153 137 178 245 216 235 183 197 306 245 170 184 189 200 206 196 197 203 216 208 210 217 216 220 226 228 223 221 225 227 233 236 236 237
203 214 224 210 188 201 239 194 206 181 203 171 160 169 184 227 221 156 221 173 64 347 207 174 203 202 210 211 224 222 217 213 211 219 225 226 224 226 234 237 239 238 239
205 216 222 217 201 197 213 232 194 198 214 183 185 194 184 182 206 142 84 342 152 245 236 233 216 213 206 208 210 223 215 216 212 215 220 225 229 231 235 240 242 244 246
211 220 203 204 197 198 206 198 191 223 210 194 201 197 219 202 119 94 132 146 20 319 290 239 227 219 219 202 202 215 224 214 214 212 218 221 225 230 234 238 242 246 249
209 218 210 207 208 194 202 194 197 222 231 227 232 204 210 221 150 159 121 128 359 257 276 265 251 220 213 195 223 232 219 215 215 212 216 219 221 223 226 233 238 242 247
209 194 189 209 227 211 207 208 218 225 234 243 243 228 195 223 154 139 162 164 165 233 246 281 263 248 261 196 222 225 212 220 213 214 216 218 220 222 225 229 234 237 240
196 194 188 176 197 215 213 195 222 246 224 256 253 264 180 219 155 151 194 223 190 197 236 219 243 236 272 275 251 227 214 209 215 215 218 221 225 225 225 229 232 235 236
196 202 217 224 204 199 210 202 215 230 214 234 245 227 254 177 182 175 202 210 186 193 186 261 216 228 283 240 237 225 209 205 217 223 222 222 223 228 229 230 232 235 237
200 203 202 210 198 199 205 200 219 218 215 221 227 229 239 230 211 190 196 185 178 218 176 240 271 227 233 257 278 260 227 216 215 216 221 221 224 233 230 231 231 233 236
207 210 197 209 209 210 207 210 217 212 209 214 217 223 227 226 254 220 204 196 195 193 202 176 251 215 262 219 292 273 238 236 230 219 213 221 227 231 229 232 235 236 234
191 209 211 208 210 208 214 212 216 215 211 217 222 218 214 208 220 228 216 214 207 208 210 175 229 264 230 284 189 234 264 222 249 244 237 225 220 231 230 219 223 231 240
214 201 209 217 218 211 213 217 212 208 207 216 225 223 229 227 217 217 209 221 202 203 223 207 210 202 233 288 219 261 231 278 296 233 281 247 207 216 232 231 239 237 238
222 198 205 210 216 224 220 208 205 213 212 215 224 226 225 236 240 223 212 208 206 193 212 199 217 220 228 220 228 233 134 73 309 326 163 303 187 248 243 218 233 246 253
232 230 223 215 214 217 216 210 207 213 212 218 215 216 226 231 220 220 220 225 229 227 202 185 207 214 216 212 188 190 193 185 214 242 140 273 204 264 277 22 356 93 129
247 235 234 230 224 225 212 212 212 212 215 223 218 210 218 227 222 205 210 215 218 225 228 226 212 229 223 212 197 196 206 226 270 263 151 233 226 244 169 52 28 89 102
261 245 236 231 226 233 215 211 206 203 216 226 227 216 212 222 221 208 194 215 228 235 222 218 218 227 221 215 194 153 217 171 252 248 209 182 222 225 130 55 42 72 99
255 266 272 259 232 233 225 218 208 215 218 209 219 230 228 221 210 205 203 215 231 239 214 215 225 248 244 245 205 203 202 209 209 280 233 192 179 157 210 87 125 108 96